Location: Chavannes
(47.1090°N, 0.2226°W)
Time: 15:11:27
(UTC+00:00)

Meteor 1-24 Rocket - Pass Details

Date: 16 October 2021
Orbit: 790 x 927 km, 81.3° (Epoch: 06 December)

Event Time Altitude Azimuth Distance (km) Brightness Sun altitude
Rises 17:40:36 0° 346° (NNW) 3,421 7.0 -5.7°
Reaches altitude 10° 17:43:00 10° 344° (NNW) 2,501 6.3 -6.1°
Maximum altitude 17:48:39 68° 263° (W) 949 4.3 -7.1°
Drops below altitude 10° 17:54:28 10° 182° (S) 2,572 6.3 -8.1°
Sets 17:56:58 0° 179° (S) 3,524 7.0 -8.5°
